Location: Unspecified
(0.0000°N, 0.0000°E)
Time: 14:52:53
(UTC+00:00)

CZ-2D R/B - Visible Passes

Search period start: 13 November 2025 00:00
Search period end: 23 November 2025 00:00
Orbit: 530 x 607 km, 34.9° (Epoch: 12 November)

Date Brightness Start Highest point End Pass type
(mag) Time Alt. Az. Time Alt. Az. Time Alt. Az.
13 Nov ? 04:29:42 38° W 04:30:54 55° NW 04:34:52 10° NE visible
14 Nov ? 04:30:53 29° NNW 04:30:53 29° NNW 04:34:11 10° NNE visible
15 Nov ? 04:31:53 14° N 04:31:53 14° N 04:33:03 10° N visible
